This is the latest recevied weather packets stored in our database for station/object SP3OTE-2. If no packets are shown the sender has not sent any weather packets the latest 10 day(s).
| Time | Temp. | Humidity | Pressure | Rain* | Wind** | Luminosity | Snow |
|---|---|---|---|---|---|---|---|
| 1777623854 | 16.11° C | 42% | 1027.6 hPa | - | - | - | - |
| 1777623254 | 15.56° C | 43% | 1027.6 hPa | - | - | - | - |
| 1777622653 | 15.56° C | 45% | 1027.7 hPa | - | - | - | - |
| 1777622053 | 15° C | 46% | 1027.8 hPa | - | - | - | - |
| 1777621453 | 15° C | 47% | 1027.8 hPa | - | - | - | - |
| 1777620852 | 14.44° C | 48% | 1027.7 hPa | - | - | - | - |
| 1777620252 | 14.44° C | 48% | 1027.7 hPa | - | - | - | - |
| 1777619652 | 13.89° C | 49% | 1027.7 hPa | - | - | - | - |
| 1777619052 | 13.89° C | 51% | 1027.8 hPa | - | - | - | - |
| 1777618452 | 13.33° C | 51% | 1027.8 hPa | - | - | - | - |
| 1777617851 | 13.33° C | 51% | 1027.8 hPa | - | - | - | - |
| 1777617251 | 12.78° C | 52% | 1027.9 hPa | - | - | - | - |
| 1777616651 | 12.78° C | 51% | 1027.9 hPa | - | - | - | - |
| 1777616050 | 12.22° C | 54% | 1027.8 hPa | - | - | - | - |
| 1777615450 | 12.22° C | 55% | 1027.8 hPa | - | - | - | - |
| 1777614850 | 11.67° C | 56% | 1027.8 hPa | - | - | - | - |
| 1777614250 | 11.11° C | 56% | 1027.9 hPa | - | - | - | - |
| 1777613649 | 11.11° C | 60% | 1028 hPa | - | - | - | - |
| 1777613049 | 10.56° C | 62% | 1028 hPa | - | - | - | - |
| 1777612449 | 10° C | 66% | 1028.1 hPa | - | - | - | - |
| 1777611849 | 10° C | 68% | 1028 hPa | - | - | - | - |
| 1777611248 | 9.44° C | 70% | 1028 hPa | - | - | - | - |
| 1777610648 | 8.89° C | 73% | 1027.9 hPa | - | - | - | - |
| 1777610048 | 8.33° C | 77% | 1027.8 hPa | - | - | - | - |
| 1777609448 | 7.78° C | 77% | 1027.6 hPa | - | - | - | - |
* Rain since midnight (hover to see other rain measurements)
** Current wind speed in m/s (hover to see current wind gust speed)